Zurück zum Katalog

FREGAT R/B

AktivMEO
NORAD 40083·ROCKET BODY·🇷🇺 Russia

Gestartet Jul 10, 2014 von Guiana Space Centre

Loading…

Nächste Überflüge (nächste 24 Stunden)

TLE

AktuellSource: Space-Track

Epoche: Sep 14, 2026, 07:49 UTC

1 40083U 14038E   26257.32630450 -.00000024  00000-0  00000-0 0  9993
2 40083   0.0931 254.0735 0010189 171.3520 294.6815  5.21123015231870

Verfolge FREGAT R/B in Echtzeit mit AllMySat

Download on the App Store